sat.trackr.live / text

‹ back to catalog

STARLINK-34019

NORAD 64032 · 2025-102L

PAYLOAD ACTIVE UNKNOWN

§ Identity

Operator
Country
US
Launch date
2025-05-16
Launch site
AFWTR
Launch vehicle
Mass (kg)
RCS (m²)

Purposes: comms

External: N2YO · Heavens-Above · Gunter

§ Orbital elements

Epoch: 2026-09-20T22:15:27.756576Z

Period
94.14 min
Inclination
69.9999°
Eccentricity
0.0003519
Mean motion
15.29585091 rev/d
Perigee alt
474.6 km
Apogee alt
479.5 km
Semi-major
6,855.2 km
B*
3.5062e-4
RAAN
339.9249°
Arg perigee
268.1417°
Mean anomaly
91.9355°
Rev number
7,526

§ Raw data

STARLINK-340191 64032U 25102L   26263.92740459  .00009966  00000+0  35062-3 0  99922 64032  69.9999 339.9249 0003519 268.1417  91.9355 15.29585091 75261

JSON: /api/v1/satellites/64032 · /tle

For live sub-satellite position, see the globe view (requires WebGL).

§ Visibility from observer

Set your observer location to see the next 7 days of passes ≥ 10°. The values pass through the URL so the page stays shareable.

No JS? Fill the form by hand. The geolocation button needs JavaScript.